Find STARLINK-37529

NORAD ID: 70583 Constellation: starlink operational
LEOCIRCULARRETROGRADE

リアルタイム位置

3D地球を読み込み中...

STARLINK-37529について

説明を読み込み中...

次回通過

Passes for default location (London). Set your location on the main map for personalized predictions.

高度履歴

Loading altitude history...

軌道要素

1 70583C 26097Z 26121.89423611 -.00221640 00000+0 -31492-3 0 1218
2 70583 97.2853 316.5563 0009427 253.9377 73.4761 16.05635909 19
Epoch: May 1, 2026 • Age: 29 hours